W6DSP Weather Reports


Display with metric or nautical units.
time (UTC)temp
F
wind
direction
speed
MPH
gust
MPH
rain 1hr
in
rain 24hr
in
rain mn
in
humidity
%
barometer
mb
20200401093043 39 0 1.0 4.0 0.00 0.06 0.00 94 1013.9
20200401090635 39 306 0.0 4.0 0.00 0.06 0.00 93 1013.8
20200401085433 39 346 1.0 4.0 0.00 0.06 0.00 93 1013.7
20200401084240 39 327 1.0 4.0 0.00 0.06 0.00 93 1013.6
20200401083046 39 319 1.0 4.0 0.00 0.06 0.00 93 1013.6
20200401081904 39 5 1.0 4.0 0.00 0.06 0.00 93 1013.7
20200401080654 39 0 1.0 4.0 0.00 0.06 0.00 93 1013.7
20200401075500 39 339 1.0 4.0 0.00 0.06 0.00 94 1013.8
20200401074256 39 336 1.0 4.0 0.00 0.06 0.00 94 1013.8
20200401073053 39 333 1.0 4.0 0.00 0.06 0.00 94 1013.8
20200401071912 39 341 0.0 3.0 0.00 0.06 0.00 94 1013.9
20200401070720 40 319 1.0 3.0 0.00 0.06 0.00 94 1013.8
20200401065445 40 297 1.0 3.0 0.00 0.06 0.00 94 1013.9
20200401064244 40 329 0.0 4.0 0.00 0.06 0.00 94 1013.9
20200401063028 40 5 0.0 3.0 0.00 0.06 0.00 94 1014.0
20200401061836 40 333 1.0 4.0 0.00 0.06 0.00 94 1014.0
20200401060655 40 334 1.0 4.0 0.00 0.06 0.00 94 1014.1
20200401055518 40 14 0.0 3.0 0.00 0.06 0.00 94 1014.2
20200401054306 40 0 0.0 4.0 0.00 0.06 0.00 94 1014.1
20200401053117 40 321 1.0 4.0 0.00 0.06 0.00 94 1014.0
20200401051925 40 355 1.0 4.0 0.00 0.06 0.00 94 1014.1
20200401050753 40 342 0.0 3.0 0.00 0.06 0.00 94 1014.2
20200401045514 40 22 0.0 4.0 0.00 0.06 0.00 94 1014.2
20200401044252 40 331 1.0 4.0 0.00 0.06 0.00 94 1014.3
20200401043112 40 5 1.0 4.0 0.00 0.06 0.00 94 1014.1
20200401041851 40 349 1.0 4.0 0.00 0.06 0.00 94 1014.1
20200401040641 40 340 1.0 4.0 0.00 0.06 0.00 94 1014.1
20200401035506 40 11 1.0 4.0 0.00 0.06 0.06 94 1014.1
20200401034322 40 11 1.0 4.0 0.00 0.06 0.06 94 1014.0
20200401033042 40 5 1.0 4.0 0.00 0.06 0.06 94 1014.1
20200401031828 40 0 1.0 4.0 0.00 0.06 0.06 94 1014.0
20200401030549 40 5 1.0 4.0 0.00 0.06 0.06 94 1014.0
20200401025335 40 0 1.0 4.0 0.00 0.06 0.06 94 1014.1
20200401024150 40 13 3.0 4.0 0.00 0.06 0.06 94 1014.2
20200401022948 40 30 4.0 8.0 0.00 0.06 0.06 94 1014.2
20200401021722 40 0 3.0 8.0 0.00 0.06 0.06 94 1014.1
20200401020534 40 32 3.0 8.0 0.00 0.06 0.06 95 1014.0
20200401015305 40 0 4.0 9.0 0.00 0.06 0.06 95 1014.0
20200401014037 40 355 1.0 9.0 0.00 0.06 0.06 95 1014.0
20200401012759 40 5 1.0 4.0 0.00 0.06 0.06 95 1013.9
20200401011417 40 37 1.0 9.0 0.00 0.06 0.06 95 1013.8
20200401010211 40 19 3.0 9.0 0.00 0.04 0.05 95 1013.8
20200401005028 40 344 3.0 9.0 0.00 0.04 0.04 95 1013.8
20200401003843 40 11 0.0 3.0 0.00 0.04 0.04 95 1013.8
20200401002701 40 348 1.0 4.0 0.00 0.04 0.04 95 1013.6
20200401001422 40 36 3.0 7.0 0.00 0.03 0.03 95 1013.6
20200401000230 40 346 3.0 7.0 0.00 0.03 0.03 95 1013.5
20200331235000 40 5 3.0 7.0 0.00 0.03 0.03 95 1013.6
20200331233749 40 355 3.0 8.0 0.00 0.03 0.03 94 1013.5
20200331232542 40 335 3.0 8.0 0.00 0.03 0.03 94 1013.5
20200331231321 40 13 3.0 7.0 0.05 0.03 0.03 94 1013.5
20200331230104 40 42 1.0 9.0 0.00 0.02 0.02 94 1013.3
20200331224822 41 327 3.0 9.0 0.00 0.01 0.01 92 1013.3
20200331223623 41 15 1.0 4.0 0.00 0.01 0.01 92 1013.2
20200331222357 41 27 4.0 14.0 0.00 0.01 0.01 90 1013.1
20200331221228 43 341 3.0 10.0 0.00 0.00 0.00 87 1013.1
20200331220035 43 0 4.0 10.0 0.00 0.00 0.00 86 1012.9
20200331214820 43 341 4.0 9.0 0.00 0.00 0.00 88 1012.9
20200331213559 42 0 3.0 9.0 0.00 0.00 0.00 90 1012.9
20200331212424 42 0 4.0 9.0 0.00 0.00 0.00 88 1012.8
20200331211255 42 36 3.0 7.0 0.00 0.00 0.00 90 1012.8
20200331210021 42 13 3.0 10.0 0.00 0.00 0.00 90 1012.7
20200331204802 42 346 4.0 10.0 0.00 0.00 0.00 88 1012.7
20200331203601 43 12 4.0 9.0 0.00 0.00 0.00 85 1012.7
20200331202420 43 12 3.0 6.0 0.00 0.00 0.00 87 1012.7
20200331201206 42 348 3.0 6.0 0.00 0.00 0.00 88 1012.8
20200331200028 42 351 3.0 8.0 0.00 0.00 0.00 87 1012.8
20200331194756 42 329 4.0 11.0 0.00 0.00 0.00 90 1012.9
20200331193517 42 334 4.0 11.0 0.00 0.00 0.00 89 1013.0
20200331192325 42 343 4.0 10.0 0.00 0.00 0.00 91 1013.0
20200331191129 41 22 4.0 8.0 0.00 0.00 0.00 92 1013.2
20200331185952 41 12 4.0 9.0 0.00 0.00 0.00 92 1013.4
20200331184732 41 15 4.0 11.0 0.00 0.00 0.00 90 1013.4
20200331183546 41 25 4.0 11.0 0.00 0.00 0.00 91 1013.4
20200331182318 41 355 4.0 9.0 0.00 0.00 0.00 91 1013.6
20200331181129 41 324 3.0 10.0 0.00 0.00 0.00 90 1013.6
20200331175906 41 28 4.0 8.0 0.00 0.00 0.00 88 1013.7
20200331174708 41 19 3.0 9.0 0.00 0.00 0.00 86 1013.8
20200331173449 41 51 3.0 8.0 0.00 0.00 0.00 85 1014.0
20200331172211 41 39 3.0 8.0 0.00 0.00 0.00 84 1014.0
20200331171008 41 58 3.0 7.0 0.00 0.00 0.00 85 1014.1
20200331165735 41 19 3.0 7.0 0.00 0.00 0.00 86 1014.3
20200331164509 41 35 3.0 6.0 0.00 0.00 0.00 86 1014.5
20200331163249 41 0 3.0 7.0 0.00 0.00 0.00 85 1014.6
20200331162104 41 17 3.0 7.0 0.00 0.00 0.00 87 1014.7
20200331160712 40 38 3.0 6.0 0.00 0.00 0.00 87 1014.9
20200331155531 40 58 1.0 4.0 0.00 0.00 0.00 87 1015.0
20200331154344 39 76 1.0 4.0 0.00 0.00 0.00 87 1015.2
20200331153129 39 15 1.0 7.0 0.00 0.00 0.00 88 1015.4
20200331151936 39 9 3.0 7.0 0.00 0.00 0.00 88 1015.4
20200331150717 39 17 1.0 4.0 0.00 0.00 0.00 89 1015.7
20200331145531 38 20 1.0 4.0 0.00 0.00 0.00 89 1015.4
20200331144350 38 25 1.0 1.0 0.00 0.00 0.00 91 1015.5
20200331143132 37 5 3.0 4.0 0.00 0.00 0.00 91 1015.4
20200331141919 37 32 1.0 4.0 0.00 0.00 0.00 91 1015.4
20200331140651 37 5 1.0 4.0 0.00 0.00 0.00 92 1015.6
20200331135445 37 27 1.0 4.0 0.00 0.00 0.00 92 1015.5
20200331134215 36 24 1.0 4.0 0.00 0.00 0.00 93 1015.6
20200331133013 36 32 1.0 4.0 0.00 0.00 0.00 93 1015.8
20200331131834 35 338 0.0 4.0 0.00 0.00 0.00 94 1016.0
20200331130608 35 355 0.0 1.0 0.00 0.00 0.00 94 1015.9
20200331125425 34 355 0.0 1.0 0.00 0.00 0.00 94 1015.7
20200331124218 33 339 0.0 1.0 0.00 0.00 0.00 95 1015.5
20200331123011 33 339 0.0 1.0 0.00 0.00 0.00 95 1015.6
20200331121838 32 336 0.0 0.0 0.00 0.00 0.00 95 1015.7
20200331120700 32 336 0.0 0.0 0.00 0.00 0.00 95 1016.0
20200331115443 32 336 0.0 0.0 0.00 0.00 0.00 96 1016.2
20200331114203 32 336 0.0 0.0 0.00 0.00 0.00 96 1016.4
20200331112941 31 336 0.0 0.0 0.00 0.00 0.00 96 1016.4
20200331111733 31 336 0.0 0.0 0.00 0.00 0.00 96 1016.6
20200331110516 30 336 0.0 0.0 0.00 0.00 0.00 96 1016.3
20200331105341 30 336 0.0 0.0 0.00 0.00 0.00 96 1016.3
20200331104136 30 336 0.0 0.0 0.00 0.00 0.00 95 1016.0
20200331102919 29 336 0.0 0.0 0.00 0.00 0.00 95 1015.8
20200331101638 29 336 0.0 0.0 0.00 0.00 0.00 95 1015.9
20200331100509 30 336 0.0 0.0 0.00 0.00 0.00 95 1016.0
20200331095318 30 336 0.0 0.0 0.00 0.00 0.00 95 1016.2
20200331094041 30 336 0.0 0.0 0.00 0.00 0.00 95 1016.4